User: anonymous   Login
Location: Unspecified
(0.0000°N, 0.0000°E)
Time: 10:07:39
(UTC+00:00)
Language:

Meteor 2-18 - Orbit

View from above orbital plane
View from above orbital plane
View from above satellite
View from above satellite

Ground track
Ground track

The orbit data is extracted from the following two-line orbital elements,

1 19851U 89018A   18175.92421762 +.00000004 +00000-0 -94306-5 0  9997
2 19851 082.5201 338.1456 0013677 052.7231 100.4807 13.85706798482185
Epoch (UTC): 24 June 2018 22:10:52
Eccentricity: 0.0013677
inclination: 82.5201°
perigee height: 934 km
apogee height: 954 km
right ascension of ascending node: 338.1456°
argument of perigee: 52.7231°
revolutions per day: 13.85706798
mean anomaly at epoch: 100.4807°
orbit number at epoch: 48218

The dashed part of the orbit path shows where the satellite is in the earth's shadow,  

DLR